WZZ4NJ EGGP-LRIA

Flight info

Callsign WZZ4NJ
Flight time N/A
Altitude 37000
Route NANTI DCT TUMTI DCT XW02F DCT BAGPA DCT PETIK DCT LUTET DCT KENIG DCT LAGAR DCT NOMIX DCT LADOB/K0795F370 DCT BANUV/N0428F370 DCT SCV DCT ARPIG DCT IA514
Aircraft A20N/M-SDE2E3FGHIRWXY/LB1

Departure

Time 2026-05-06 18:01
Airport Liverpool John Lennon Airport (EGGP)

Arrival

Time N/A
Airport Iaşi International Airport (LRIA)
Time Latitude Longitude Altitude Speed Heading
2026-05-06 17:28 53.33630 -2.85199 92 ft 0 kts 265°
2026-05-06 17:28 53.33631 -2.85188 91 ft 0 kts 265°
2026-05-06 17:54 53.33631 -2.85179 89 ft 4 kts 265°
2026-05-06 17:54 53.33634 -2.85134 89 ft 4 kts 258°
2026-05-06 17:54 53.33642 -2.85093 92 ft 4 kts 230°
2026-05-06 17:55 53.33656 -2.85077 89 ft 0 kts 176°
2026-05-06 17:57 53.33635 -2.85074 89 ft 6 kts 175°
2026-05-06 17:57 53.33584 -2.85067 89 ft 9 kts 175°
2026-05-06 17:57 53.33526 -2.85101 90 ft 10 kts 239°
2026-05-06 17:57 53.33518 -2.85228 90 ft 12 kts 266°
2026-05-06 17:58 53.33511 -2.85386 89 ft 15 kts 265°
2026-05-06 17:58 53.33502 -2.85570 90 ft 17 kts 265°
2026-05-06 17:58 53.33492 -2.85778 90 ft 19 kts 265°
2026-05-06 17:58 53.33482 -2.86009 90 ft 21 kts 266°
2026-05-06 17:59 53.33470 -2.86259 90 ft 22 kts 265°
2026-05-06 17:59 53.33461 -2.86445 89 ft 3 kts 265°
2026-05-06 17:59 53.33459 -2.86497 89 ft 6 kts 265°
2026-05-06 17:59 53.33455 -2.86585 89 ft 9 kts 266°
2026-05-06 18:00 53.33432 -2.86695 90 ft 11 kts 231°
2026-05-06 18:00 53.33357 -2.86727 88 ft 12 kts 158°
2026-05-06 18:00 53.33289 -2.86638 91 ft 12 kts 107°
2026-05-06 18:00 53.33293 -2.86518 87 ft 11 kts 86°
2026-05-06 18:01 53.33299 -2.86354 86 ft 30 kts 86°
2026-05-06 18:01 53.33337 -2.85524 90 ft 110 kts 85°
2026-05-06 18:01 53.33421 -2.83940 311 ft 144 kts 86°
2026-05-06 18:01 53.33482 -2.82355 1217 ft 141 kts 89°
2026-05-06 18:02 53.33522 -2.80554 1788 ft 160 kts 86°
2026-05-06 18:02 53.33505 -2.78619 2474 ft 174 kts 103°
2026-05-06 18:02 53.32927 -2.76755 2970 ft 192 kts 134°
2026-05-06 18:02 53.31773 -2.75427 3430 ft 212 kts 148°
2026-05-06 18:03 53.30431 -2.74113 3703 ft 235 kts 149°
2026-05-06 18:03 53.29024 -2.72746 3943 ft 238 kts 149°
2026-05-06 18:03 53.27586 -2.71340 3998 ft 241 kts 149°
2026-05-06 18:03 53.26147 -2.69923 4003 ft 239 kts 149°
2026-05-06 18:04 53.24725 -2.68514 3998 ft 241 kts 149°
2026-05-06 18:04 53.23197 -2.66996 3994 ft 261 kts 149°
2026-05-06 18:04 53.21638 -2.65449 4018 ft 261 kts 149°
2026-05-06 18:04 53.20106 -2.63928 4022 ft 260 kts 149°
2026-05-06 18:05 53.18535 -2.62365 4017 ft 260 kts 147°
2026-05-06 18:05 53.17054 -2.60635 4016 ft 260 kts 144°
2026-05-06 18:05 53.15602 -2.58904 4017 ft 260 kts 144°
2026-05-06 18:05 53.14265 -2.56961 4008 ft 260 kts 125°
2026-05-06 18:06 53.13585 -2.54113 4274 ft 263 kts 96°
2026-05-06 18:06 53.13416 -2.51059 5123 ft 265 kts 95°
2026-05-06 18:06 53.13240 -2.48001 5965 ft 273 kts 95°
2026-05-06 18:06 53.13053 -2.44835 6843 ft 277 kts 95°
2026-05-06 18:07 53.12860 -2.41610 7703 ft 281 kts 95°
2026-05-06 18:07 53.12666 -2.38352 8553 ft 286 kts 95°
2026-05-06 18:07 53.12467 -2.35025 9422 ft 291 kts 95°
2026-05-06 18:07 53.12264 -2.31649 10232 ft 296 kts 95°
2026-05-06 18:08 53.12060 -2.28258 10613 ft 316 kts 95°
2026-05-06 18:08 53.11832 -2.24474 10867 ft 339 kts 95°
2026-05-06 18:08 53.11591 -2.20499 11457 ft 348 kts 95°
2026-05-06 18:08 53.11165 -2.13573 12746 ft 356 kts 95°
2026-05-06 18:09 53.10650 -2.05276 14191 ft 365 kts 95°
2026-05-06 18:09 53.10117 -1.96790 15575 ft 372 kts 95°
2026-05-06 18:09 53.09572 -1.88196 16910 ft 379 kts 95°
2026-05-06 18:09 53.09006 -1.79379 18220 ft 386 kts 96°
2026-05-06 18:10 53.08424 -1.70412 19353 ft 393 kts 96°
2026-05-06 18:10 53.07826 -1.61313 20474 ft 400 kts 96°
2026-05-06 18:10 53.07349 -1.52012 21552 ft 407 kts 93°
2026-05-06 18:10 53.06985 -1.42547 22592 ft 414 kts 93°
2026-05-06 18:11 53.06579 -1.32919 23622 ft 421 kts 94°
2026-05-06 18:11 53.06144 -1.23167 24510 ft 426 kts 94°
2026-05-06 18:11 53.05692 -1.13260 25361 ft 432 kts 94°
2026-05-06 18:11 53.05227 -1.03261 26184 ft 437 kts 94°
2026-05-06 18:12 53.04748 -0.93116 26946 ft 443 kts 94°
2026-05-06 18:12 53.04254 -0.82858 27693 ft 448 kts 94°
2026-05-06 18:12 53.03744 -0.72473 28373 ft 454 kts 95°
2026-05-06 18:12 53.03223 -0.62024 29017 ft 459 kts 95°
2026-05-06 18:13 53.02626 -0.51545 29617 ft 464 kts 96°
2026-05-06 18:13 53.01946 -0.40695 30204 ft 469 kts 96°
2026-05-06 18:13 53.01280 -0.30023 30743 ft 473 kts 96°
2026-05-06 18:13 53.00595 -0.19115 31313 ft 475 kts 96°
2026-05-06 18:14 52.99901 -0.08220 32028 ft 474 kts 96°
2026-05-06 18:14 52.99198 0.02650 32719 ft 473 kts 96°
2026-05-06 18:14 52.98486 0.13500 33413 ft 471 kts 97°
2026-05-06 18:14 52.97768 0.24282 34054 ft 470 kts 97°
2026-05-06 18:15 52.97041 0.35067 34536 ft 469 kts 97°